{"data":{"norad_id":66047,"intl_designator":"2025-233Q","name":"QIANFAN-105","alt_names":[],"object_type":"PAYLOAD","status":"ACTIVE","operator":null,"country":"PRC","launch_date":"2025-10-17","launch_site_code":"TAISC","launch_vehicle":null,"mission":null,"orbit_class":"UNKNOWN","rcs_meters":null,"size_class":null,"mass_kg":null,"dimensions":null,"purposes":[],"wikipedia_slug":null,"has_3d_model":false,"image_url":null,"decayed_at":null,"tle_current":{"epoch":"2026-05-25T03:52:27.892416Z","epoch_age_seconds":75280,"freshness":"FRESH","line1":"1 66047U 25233Q   26145.16143394  .00000139  00000+0  19715-3 0  9995","line2":"2 66047  89.0043  45.2623 0002002  70.4053 289.7314 13.51008967 30236","mean_motion":13.51008967,"eccentricity":0.0002002,"inclination_deg":89.0043,"raan_deg":45.2623,"arg_perigee_deg":70.4053,"mean_anomaly_deg":289.7314,"bstar":0.00019715,"rev_number":3023,"period_min":106.58700535479,"perigee_km":1067.0578081982,"apogee_km":1070.0394611263,"semimajor_km":7446.6856346623,"source":"CELESTRAK","updated_at":"2026-05-25T13:38:05.923168Z"}}}